Change the Weather History Date:

Wednesday, June 26, 2013

  Actual Average Record
Temperature  
Mean Temperature 74 °F 70 °F  
Max Temperature 80 °F 78 °F 92 °F (1952)
Min Temperature 67 °F 61 °F 46 °F (2004)
Degree Days  
Heating Degree Days 0 1  
Month to date heating degree days 68 58  
Since 1 June heating degree days 68 58  
Since 1 July heating degree days 5880 6144  
Cooling Degree Days 9 6  
Month to date cooling degree days 99 99  
Year to date cooling degree days 184 138  
Since 1 June cooling degree days 99 99  
Growing Degree Days 23 (Base 50)    
Moisture  
Dew Point 65 °F    
Average Humidity 74    
Maximum Humidity 90    
Minimum Humidity 58    
Precipitation  
Precipitation 0.16 in 0.13 in 0.73 in (1993)
Month to date precipitation 5.50 3.27  
Year to date precipitation 22.73 18.33  
Snow  
Snow 0.00 in 0.00 in - ()
Month to date snowfall 0.0 0.0  
Since 1 June snowfall 0.0 0.0  
Since 1 July snowfall 105.5 100.9  
Snow Depth 0.00 in    
Sea Level Pressure  
Sea Level Pressure 29.84 in    
Wind  
Wind Speed 7 mph (SW)    
Max Wind Speed 20 mph    
Max Gust Speed 25 mph    
Visibility 10 miles    
Events Rain    
T = Trace of Precipitation, MM = Missing Value Source: NWS Daily Summary

Daily Weather History Graph

Daily Weather History Graph

Search for Another Location

Airport or City:

Trip Planner

Search our weather history database for the weather conditions in past years. The results will help you decide how hot, cold, wet, or windy it might be!

Date:

Astronomy

Jun. 26, 2013 Rise Set
Actual Time 5:46 AM EDT 9:00 PM EDT
Civil Twilight 5:12 AM EDT 9:35 PM EDT
Nautical Twilight 4:27 AM EDT 10:19 PM EDT
Astronomical Twilight 3:33 AM EDT 11:13 PM EDT
Moon 11:18 PM EDT (6/26) 9:40 AM EDT (6/26)
Length of Visible Light 16h 23m
Length of Day
15h 14m
Waning Gibbous, 85% of the Moon is Illuminated
Jun 26
Waning Gibbous
Jun 30
Last Quarter
Jul 8
New
Jul 15
First Quarter
Jul 22
Full

Hourly Weather History & Observations

Time (EDT) Temp. Dew Point Humidity Pressure Visibility Wind Dir Wind Speed Gust Speed Precip Events Conditions
12:51 AM 71.1 °F 64.9 °F 81% 29.87 in 10.0 mi SSW 12.7 mph 19.6 mph 0.00 in   Overcast
1:51 AM 69.1 °F 66.0 °F 90% 29.81 in 7.0 mi South 11.5 mph - 0.06 in Rain Light Rain
2:51 AM 68.0 °F 64.9 °F 90% 29.85 in 5.0 mi SSW 11.5 mph 19.6 mph 0.06 in Rain Heavy Rain
3:51 AM 68.0 °F 64.0 °F 87% 29.84 in 10.0 mi SSW 11.5 mph - 0.04 in   Mostly Cloudy
4:51 AM 68.0 °F 64.9 °F 90% 29.86 in 10.0 mi SSW 9.2 mph - 0.00 in Rain Light Rain
5:51 AM 68.0 °F 64.9 °F 90% 29.86 in 10.0 mi South 5.8 mph - 0.00 in   Overcast
6:46 AM 68.0 °F 64.4 °F 88% 29.86 in 10.0 mi South 6.9 mph - N/A   Mostly Cloudy
6:51 AM 68.0 °F 64.9 °F 90% 29.85 in 10.0 mi South 5.8 mph - N/A   Mostly Cloudy
7:06 AM 69.8 °F 64.4 °F 83% 29.85 in 10.0 mi SSW 5.8 mph - N/A   Scattered Clouds
7:51 AM 70.0 °F 66.0 °F 87% 29.83 in 10.0 mi South 8.1 mph - 0.00 in   Scattered Clouds
7:53 AM 69.8 °F 66.2 °F 88% 29.85 in 10.0 mi SSW 8.1 mph - N/A   Mostly Cloudy
8:00 AM 69.8 °F 66.2 °F 88% 29.84 in 10.0 mi South 10.4 mph - N/A   Mostly Cloudy
8:51 AM 71.1 °F 66.0 °F 84% 29.86 in 10.0 mi SW 6.9 mph - N/A   Overcast
9:51 AM 72.0 °F 66.0 °F 81% 29.87 in 10.0 mi SW 9.2 mph - N/A   Overcast
10:51 AM 72.0 °F 66.0 °F 81% 29.87 in 10.0 mi SSW 10.4 mph - N/A   Mostly Cloudy
11:11 AM 73.4 °F 66.2 °F 78% 29.89 in 10.0 mi WSW 6.9 mph - N/A   Mostly Cloudy
11:44 AM 75.2 °F 64.4 °F 69% 29.88 in 10.0 mi Variable 6.9 mph - N/A   Scattered Clouds
11:51 AM 75.9 °F 66.0 °F 71% 29.87 in 10.0 mi WSW 8.1 mph - N/A   Scattered Clouds
12:51 PM 75.9 °F 63.0 °F 64% 29.88 in 10.0 mi West 13.8 mph 21.9 mph N/A   Partly Cloudy
1:51 PM 77.0 °F 64.0 °F 64% 29.88 in 10.0 mi West 12.7 mph 20.7 mph N/A   Clear
2:51 PM 77.0 °F 64.9 °F 66% 29.87 in 10.0 mi West 15.0 mph 18.4 mph N/A   Clear
3:51 PM 77.0 °F 66.0 °F 69% 29.86 in 10.0 mi West 12.7 mph - N/A   Clear
4:51 PM 77.0 °F 64.9 °F 66% 29.84 in 10.0 mi WNW 9.2 mph - N/A   Clear
5:51 PM 78.1 °F 64.9 °F 64% 29.81 in 10.0 mi Calm Calm - N/A   Clear
6:51 PM 79.0 °F 64.0 °F 60% 29.81 in 10.0 mi West 5.8 mph - N/A   Clear
7:51 PM 78.1 °F 63.0 °F 60% 29.80 in 10.0 mi WSW 4.6 mph - N/A   Clear
8:51 PM 75.9 °F 63.0 °F 64% 29.80 in 10.0 mi Calm Calm - N/A   Clear
9:51 PM 73.0 °F 64.0 °F 73% 29.81 in 10.0 mi Calm Calm - N/A   Clear
10:51 PM 72.0 °F 64.0 °F 76% 29.81 in 10.0 mi Calm Calm - N/A   Partly Cloudy
11:51 PM 71.1 °F 66.0 °F 84% 29.80 in 10.0 mi Calm Calm - N/A   Clear